[[{"header":{"parameterUnit":"m.s-1","parameterCategory":1,"la1":30.2991,"la2":30.254,"lo1":-89.0895,"lo2":-89.0444,"dy":0.0017,"dx":0.0017,"nx":28,"ny":28,"refTime":"2024-08-09T09:00:00:Z","depth":0,"parameterNumber":2,"parameterNumberName":"U-component_of_WINDS"},"data":[0,0,0,0,0,0,0,0,0,0,0,0,0,0,0,0,0,0,0,0,0,0,0,0,0,0,0,0,0,0,0,0,0,0,0,0,0,0,0,0,0,0,0,0,0,0,0,0,0,0,0,0,0,0,0,0,0,0,2.2338,2.234,0,2.2472,2.2473,2.2475,2.2482,2.248,2.2478,2.2477,2.2615,2.262,2.2625,0,0,0,0,0,0,0,0,0,0,0,0,0,2.2089,2.2094,2.2338,2.234,2.2342,2.2472,2.2473,2.2475,2.2482,2.248,2.2478,2.2476,2.2614,2.262,2.2626,0,0,0,0,0,0,0,0,0,0,0,0,0,2.2208,2.2095,2.2338,2.2361,2.2364,2.2471,2.2474,2.2476,2.2482,2.248,2.2477,2.2475,2.2612,2.2619,2.2627,2.2721,0,0,2.265,2.2654,0,0,0,0,0,0,0,0,2.2201,2.2217,2.2356,2.2359,2.2363,2.2458,2.2437,2.2558,2.2483,2.2437,2.2477,2.2474,2.2565,2.2576,2.2607,2.2728,2.2734,2.2651,2.2656,2.2659,2.2661,0,0,0,0,0,0,0,2.2193,2.2211,2.2391,2.2358,2.2362,2.2364,2.2378,2.246,2.2513,2.2441,2.2442,2.2458,2.2567,2.2599,2.261,2.2736,2.2651,2.2658,2.2662,2.2665,2.2939,2.2942,0,0,0,0,0,0,2.218,2.2204,2.2387,2.2395,2.2275,2.237,2.2386,2.243,2.2512,2.2522,2.2459,2.2457,2.2587,2.2601,2.2615,2.2729,2.2659,2.2666,2.2671,2.2937,2.294,2.2943,0,0,0,0,0,0,2.2175,2.2196,2.2382,2.23,2.2324,2.2377,2.2426,2.2434,2.2466,2.2526,2.2535,2.2483,2.2586,2.2604,2.2694,2.2734,2.267,2.2677,2.2933,2.2938,2.2941,2.2959,0,0,0,0,0,0,2.2168,2.2194,2.2231,2.2301,2.2328,2.2459,2.2428,2.2438,2.2479,2.2478,2.255,2.256,2.2585,2.2683,2.2702,2.2743,2.2683,2.293,2.2935,2.294,2.2955,2.2963,2.297,0,0,0,0,0,2.2159,2.2231,2.2233,2.2255,2.2375,2.2461,2.2476,2.2504,2.2482,2.2519,2.2557,2.2558,2.2727,2.2692,2.2714,2.2758,2.2928,2.2934,2.294,2.2952,2.2961,2.2969,0,0,0,0,0,0,2.2166,2.2241,2.2243,2.2341,2.2394,2.2462,2.2509,2.2514,2.2575,2.2571,2.2603,2.2619,2.2708,2.2743,2.2702,2.2853,2.2825,2.2835,2.2826,2.2836,2.2843,2.2832,2.2689,0,0,0,0,0,2.2178,2.2242,2.2304,2.2384,2.2411,2.2455,2.2494,2.251,2.2567,2.259,2.2635,2.269,2.2756,2.2798,2.2862,2.2961,2.2975,2.3002,2.3009,2.3015,2.3023,2.3075,2.3087,2.2962,2.2962,2.2962,0,0,2.2205,2.2254,2.2293,2.2387,2.243,2.2495,2.2474,2.2544,2.2592,2.2601,2.2688,2.2723,2.2787,2.2881,2.2925,2.2912,2.3061,2.3022,2.3027,2.3032,2.3083,2.3094,2.3105,2.2966,2.2965,2.2965,0,0,2.2287,2.2331,2.2402,2.2445,2.2511,2.254,2.2556,2.2623,2.2646,2.2734,2.2741,2.2799,2.2912,2.2957,2.2994,2.3092,2.3094,2.3112,2.315,2.32,2.321,2.3219,2.3252,2.3263,2.312,2.312,2.312,0,2.2312,2.241,2.2437,2.2506,2.2547,2.2557,2.2628,2.2669,2.2752,2.278,2.2765,2.2905,2.2949,2.3053,2.3076,2.3107,2.3126,2.3103,2.3207,2.3216,2.3224,2.3256,2.3268,2.3122,2.3122,2.3121,2.3121,0,2.2436,2.2504,2.2553,2.2631,2.2678,2.2747,2.2785,2.2829,2.2841,2.2872,2.296,2.3013,2.3087,2.3113,2.3127,2.3218,2.3208,2.32,2.3172,2.3237,2.3267,2.328,2.3124,2.3124,2.3123,2.3123,0,0,2.2526,2.2618,2.2635,2.267,2.2742,2.2795,2.2865,2.2936,2.2972,2.3029,2.3088,2.3182,2.3174,2.3217,2.3235,2.328,2.3351,2.3266,2.3268,2.3278,2.3453,2.3457,2.3471,2.3353,2.3356,2.3358,2.3447,0,2.2613,2.2737,2.2763,2.287,2.2931,2.2941,2.3002,2.3053,2.3083,2.314,2.3174,2.3239,2.3225,2.325,2.3295,2.3333,2.3386,2.3327,2.3407,2.3409,2.3388,2.3487,2.3492,2.3573,2.3459,2.3461,2.3462,0,2.2732,2.279,2.2903,2.2965,2.2992,2.3046,2.3112,2.3167,2.3224,2.3243,2.329,2.3303,2.3376,2.3346,2.3446,2.3405,2.3439,2.3463,2.3466,2.3473,2.3438,2.3494,2.36,2.3611,2.3481,2.348,2.3479,0,2.2783,2.289,2.297,2.3,2.3076,2.3113,2.3146,2.3202,2.3242,2.3301,2.3327,2.3394,2.343,2.3481,2.3512,2.3487,2.3608,2.3581,2.3625,2.3624,2.3648,2.3646,2.3759,2.3674,2.3674,2.3674,2.3674,0,2.2877,2.2944,2.2993,2.3042,2.3118,2.3148,2.3222,2.3256,2.3305,2.336,2.3375,2.3426,2.3465,2.3522,2.3547,2.3625,2.3642,2.3658,2.3663,2.3656,2.3653,2.3677,2.3672,2.3677,2.3676,2.3676,2.3675,0,2.2945,2.2981,2.3069,2.3133,2.3151,2.3203,2.3258,2.3306,2.3337,2.3407,2.3425,2.3473,2.3541,2.3577,2.3663,2.3679,2.3765,2.3769,2.3745,2.3747,2.3787,2.3782,2.3918,2.3936,2.3841,2.3842,2.3843,0,2.3002,2.3054,2.3123,2.3161,2.3194,2.3256,2.3296,2.3328,2.337,2.3439,2.3478,2.3547,2.3603,2.3711,2.3753,2.3819,2.3822,2.3866,2.3832,2.3822,2.382,2.3816,2.382,2.3871,2.3871,2.3872,2.3873,0,2.3098,2.3112,2.317,2.3234,2.3282,2.3334,2.3386,2.3416,2.3456,2.3503,2.3572,2.3615,2.3702,2.3769,2.3837,2.3872,2.3879,2.3883,2.3896,2.3888,2.3871,2.3878,2.3758,2.3879,2.3879,2.3878,2.3878,2.3878,2.3161,2.3206,2.3261,2.3325,2.3367,2.3414,2.3462,2.3498,2.3555,2.3627,2.3643,2.3715,2.3771,2.3863,2.3899,2.3956,2.3948,2.3967,2.3972,2.3976,2.3976,2.3863,2.3969,2.3969,2.3969,2.3969,2.3969,0,2.3255,2.329,2.3349,2.342,2.347,2.3472,2.3528,2.357,2.3633,2.3684,2.3739,2.3817,2.3882,2.3929,2.3996,2.4032,2.4037,2.4048,2.4045,2.4052,2.3981,2.3962,2.4043,2.4043,2.4043,2.4043,2.4043,2.4043,2.3309,2.3386,2.3407,2.3505,2.354,2.361,2.3642,2.3686,2.3726,2.3813,2.3867,2.3897,2.3946,2.4016,2.4075,2.4088,2.411,2.4121,2.4133,2.4066,2.4058,2.405,2.4032,2.4127,2.4127,2.42,2.42,2.4201]},{"header":{"parameterUnit":"m.s-1","parameterCategory":1,"la1":30.2991,"la2":30.254,"lo1":-89.0895,"lo2":-89.0444,"dy":0.0017,"dx":0.0017,"nx":28,"ny":28,"refTime":"2024-08-09T09:00:00:Z","depth":0,"parameterNumber":3,"parameterNumberName":"V-component_of_WINDS"},"data":[0,0,0,0,0,0,0,0,0,0,0,0,0,0,0,0,0,0,0,0,0,0,0,0,0,0,0,0,0,0,0,0,0,0,0,0,0,0,0,0,0,0,0,0,0,0,0,0,0,0,0,0,0,0,0,0,0,0,2.1608,2.1608,0,2.1531,2.153,2.1529,2.1431,2.143,2.1428,2.1427,2.1347,2.1346,2.1346,0,0,0,0,0,0,0,0,0,0,0,0,0,2.167,2.1669,2.1608,2.1608,2.1607,2.1531,2.153,2.1529,2.1432,2.143,2.1428,2.1426,2.1347,2.1346,2.1346,0,0,0,0,0,0,0,0,0,0,0,0,0,2.1623,2.1669,2.1609,2.1549,2.1543,2.1532,2.153,2.1529,2.1432,2.143,2.1427,2.1425,2.1347,2.1346,2.1345,2.1387,0,0,2.1342,2.1342,0,0,0,0,0,0,0,0,2.1626,2.1621,2.1558,2.1553,2.1546,2.1488,2.1523,2.1481,2.1433,2.1474,2.1427,2.1424,2.1396,2.1391,2.1381,2.1383,2.138,2.1342,2.1342,2.1341,2.1341,0,0,0,0,0,0,0,2.1629,2.1624,2.1578,2.1558,2.155,2.1525,2.1516,2.1514,2.1449,2.147,2.1463,2.1455,2.1392,2.1383,2.1379,2.1378,2.1342,2.1342,2.1341,2.1341,2.1408,2.141,0,0,0,0,0,0,2.1642,2.1627,2.158,2.1576,2.1581,2.1526,2.1516,2.1509,2.1449,2.1437,2.1457,2.1451,2.1385,2.138,2.1376,2.1419,2.1341,2.134,2.134,2.1406,2.1409,2.1411,0,0,0,0,0,0,2.1643,2.1638,2.1583,2.1599,2.159,2.1528,2.1521,2.1509,2.15,2.1439,2.1427,2.146,2.1383,2.1377,2.1384,2.1415,2.134,2.1339,2.1403,2.1407,2.141,2.1507,0,0,0,0,0,0,2.1645,2.164,2.1655,2.16,2.159,2.1594,2.1523,2.1509,2.1498,2.1489,2.1438,2.1427,2.1381,2.1386,2.1383,2.1412,2.1338,2.14,2.1405,2.1409,2.1501,2.1513,2.1524,0,0,0,0,0,2.1648,2.1686,2.1656,2.1651,2.1608,2.1596,2.159,2.1536,2.1501,2.1516,2.1477,2.1429,2.1412,2.1388,2.1384,2.1413,2.1398,2.1403,2.1409,2.1496,2.1511,2.1524,0,0,0,0,0,0,2.1746,2.1677,2.1644,2.1665,2.1637,2.158,2.1597,2.1555,2.1536,2.1528,2.1462,2.1451,2.1466,2.144,2.1414,2.1449,2.1398,2.1403,2.1465,2.1479,2.1491,2.1497,2.1338,0,0,0,0,0,2.177,2.1766,2.1706,2.1731,2.1718,2.166,2.1653,2.1614,2.1582,2.157,2.1531,2.1502,2.149,2.1483,2.1469,2.1496,2.1483,2.1514,2.1526,2.1536,2.1541,2.1552,2.1565,2.1429,2.1429,2.1429,0,0,2.1819,2.1781,2.1783,2.1749,2.1723,2.172,2.1651,2.1651,2.1648,2.157,2.1574,2.1545,2.1508,2.1525,2.1531,2.1504,2.1575,2.1543,2.1551,2.155,2.1559,2.1572,2.1583,2.1433,2.1432,2.1431,0,0,2.1908,2.1879,2.1896,2.1871,2.1832,2.1793,2.1797,2.1745,2.1723,2.1726,2.1667,2.1662,2.1643,2.1618,2.1604,2.1682,2.1637,2.1679,2.174,2.1752,2.1763,2.1772,2.1799,2.181,2.1684,2.1684,2.1685,0,2.1974,2.1968,2.191,2.1914,2.19,2.1829,2.1844,2.1823,2.1781,2.1773,2.1744,2.1717,2.1687,2.1697,2.1716,2.1707,2.1709,2.1685,2.1766,2.1775,2.1783,2.1808,2.1818,2.169,2.1689,2.1689,2.1688,0,2.2051,2.2048,2.2066,2.2027,2.2016,2.2026,2.1968,2.1964,2.1925,2.1889,2.1893,2.1854,2.183,2.183,2.1792,2.1834,2.1818,2.1779,2.1726,2.1802,2.1824,2.1833,2.1697,2.1695,2.1694,2.1693,0,0,2.22,2.2128,2.2136,2.2117,2.2068,2.2064,2.2071,2.2047,2.2044,2.2017,2.202,2.2005,2.1967,2.1951,2.191,2.192,2.1984,2.1878,2.1877,2.1899,2.2026,2.2056,2.2069,2.1953,2.1955,2.1956,2.2029,0,2.2279,2.2286,2.2233,2.2254,2.225,2.2181,2.2186,2.2157,2.2123,2.2114,2.2076,2.2066,2.2018,2.2007,2.2014,2.1975,2.2008,2.1968,2.1955,2.1955,2.1966,2.208,2.2112,2.2183,2.2038,2.2039,2.204,0,2.2372,2.2351,2.2371,2.2321,2.2317,2.2323,2.2296,2.2289,2.2253,2.2228,2.2209,2.2161,2.2163,2.2113,2.2114,2.2088,2.2079,2.2058,2.206,2.2056,2.2002,2.2079,2.2204,2.2215,2.2053,2.2052,2.2051,0,2.2477,2.2454,2.2463,2.2449,2.239,2.2396,2.2371,2.2334,2.2323,2.2299,2.2291,2.2269,2.2256,2.2239,2.2187,2.2155,2.2193,2.2139,2.2171,2.2172,2.2182,2.2182,2.2307,2.2177,2.2177,2.2177,2.2177,0,2.2571,2.2586,2.2509,2.2515,2.2529,2.2468,2.2484,2.2453,2.242,2.2417,2.2357,2.2355,2.2286,2.2277,2.2236,2.2242,2.2237,2.2216,2.2205,2.2221,2.2224,2.2214,2.2208,2.218,2.2179,2.2178,2.2178,0,2.2691,2.264,2.2645,2.2589,2.2575,2.2589,2.254,2.2543,2.2505,2.2502,2.2498,2.2439,2.2425,2.2371,2.2344,2.2316,2.2335,2.2314,2.2347,2.234,2.2375,2.2372,2.2498,2.251,2.2374,2.2375,2.2376,0,2.2754,2.2764,2.2709,2.2703,2.2682,2.2673,2.2662,2.2602,2.2592,2.2552,2.2559,2.254,2.2522,2.2502,2.2456,2.2434,2.2412,2.2457,2.2408,2.2424,2.2412,2.2412,2.2412,2.2468,2.247,2.2471,2.2472,0,2.2871,2.2845,2.2831,2.2808,2.2796,2.2774,2.275,2.2748,2.2681,2.2673,2.2658,2.2644,2.2616,2.2598,2.2568,2.2542,2.2496,2.2488,2.2494,2.2511,2.253,2.2519,2.2376,2.2485,2.2484,2.2483,2.2482,2.2482,2.2964,2.2969,2.2931,2.2917,2.2892,2.287,2.2869,2.2831,2.2818,2.2791,2.2756,2.2745,2.2708,2.2664,2.2641,2.2631,2.2606,2.2615,2.2617,2.262,2.2628,2.2532,2.2626,2.2625,2.2625,2.2625,2.2624,0,2.3077,2.3049,2.3037,2.3004,2.2993,2.295,2.292,2.2914,2.2905,2.2875,2.2858,2.284,2.2822,2.2774,2.2751,2.2752,2.273,2.2748,2.2747,2.2742,2.2653,2.265,2.2766,2.2766,2.2766,2.2766,2.2766,2.2766,2.3134,2.3141,2.3111,2.3104,2.3075,2.3065,2.3052,2.3031,2.3006,2.2989,2.2974,2.2943,2.2905,2.2878,2.2859,2.2845,2.2839,2.2864,2.2844,2.2761,2.2748,2.2735,2.2732,2.2864,2.2864,2.2933,2.2934,2.2934]}]]